Temp
-12 -13 -15 -15 -14 -14 -14 -13 -13 -13 -13 -13 -13 -13 -13 -13 -13 -13 -13 -13 -14 -14 -14 -15 -15 -15 -15 -15 -15 -16 -16 -16 -17 -17 -18 -18 -18 -19 -20 -22 -23 -25 -26 -26 -26 -25 -25 -25 -25 -24 -24 -24 -24 -24
-12 -13 -13 -15 -16 -14 -13 -14 -14 -14 -13 -13 -13 -13 -13 -13 -14 -14 -13 -14 -14 -14 -15 -15 -15 -15 -15 -15 -16 -16 -16 -17 -17 -18 -18 -18 -19 -19 -19 -21 -23 -25 -25 -26 -26 -25 -25 -25 -24 -23 -23 -24 -24 -24
-13 -13 -13 -14 -16 -15 -14 -14 -14 -14 -14 -14 -14 -14 -14 -14 -14 -14 -14 -14 -14 -15 -15 -15 -15 -15 -15 -16 -16 -16 -16 -17 -18 -18 -18 -18 -19 -19 -20 -21 -23 -25 -25 -26 -26 -26 -25 -25 -25 -24 -23 -23 -24 -23
-13 -13 -13 -13 -14 -14 -14 -14 -14 -14 -14 -14 -14 -14 -14 -14 -14 -14 -14 -14 -14 -15 -15 -15 -15 -15 -15 -16 -16 -16 -17 -17 -18 -18 -19 -19 -19 -20 -20 -21 -23 -25 -26 -25 -26 -26 -26 -25 -25 -24 -24 -24 -23 -23
-13 -13 -13 -13 -13 -15 -15 -14 -15 -14 -14 -14 -15 -15 -15 -15 -14 -14 -14 -14 -15 -15 -16 -15 -15 -15 -16 -16 -16 -17 -17 -17 -18 -19 -19 -19 -19 -20 -20 -22 -23 -25 -26 -27 -27 -26 -27 -26 -26 -25 -24 -24 -24 -23
-13 -14 -13 -13 -14 -15 -14 -15 -15 -15 -15 -15 -15 -15 -15 -14 -14 -14 -14 -15 -15 -16 -15 -15 -15 -16 -16 -16 -17 -17 -18 -18 -19 -19 -19 -20 -20 -20 -20 -21 -23 -25 -26 -26 -27 -28 -27 -27 -26 -25 -25 -24 -24 -24
-13 -14 -14 -14 -14 -14 -14 -15 -15 -15 -15 -15 -15 -15 -15 -15 -15 -15 -15 -15 -16 -16 -15 -15 -16 -16 -17 -16 -17 -17 -18 -18 -19 -19 -20 -20 -20 -20 -21 -22 -23 -25 -26 -27 -28 -28 -28 -27 -26 -26 -25 -24 -24 -24
-13 -14 -14 -14 -14 -14 -14 -14 -16 -16 -15 -15 -15 -15 -15 -15 -15 -15 -15 -16 -16 -16 -16 -16 -16 -17 -17 -17 -17 -17 -18 -19 -20 -20 -20 -20 -20 -21 -21 -22 -23 -25 -27 -28 -29 -29 -29 -29 -27 -27 -26 -25 -24 -24
-14 -14 -14 -14 -14 -14 -14 -14 -15 -15 -15 -15 -15 -15 -15 -15 -15 -15 -16 -16 -16 -16 -16 -17 -17 -17 -17 -17 -17 -18 -18 -19 -20 -20 -20 -21 -21 -21 -21 -22 -24 -26 -27 -28 -29 -29 -30 -30 -28 -27 -26 -26 -25 -24
-14 -14 -14 -14 -14 -14 -14 -14 -15 -15 -15 -15 -15 -15 -15 -15 -15 -16 -16 -16 -16 -16 -17 -17 -17 -17 -17 -17 -18 -18 -18 -19 -20 -20 -21 -21 -22 -22 -22 -23 -25 -26 -28 -29 -30 -30 -30 -31 -29 -27 -27 -26 -25 -24
-14 -14 -14 -14 -14 -14 -14 -15 -15 -15 -16 -15 -15 -15 -15 -15 -16 -16 -16 -17 -17 -17 -17 -17 -17 -17 -17 -18 -18 -19 -20 -20 -20 -20 -21 -22 -22 -23 -23 -24 -26 -27 -28 -29 -30 -30 -31 -31 -29 -28 -27 -26 -26 -24
-15 -14 -14 -14 -14 -15 -15 -15 -15 -15 -16 -16 -15 -15 -16 -16 -16 -16 -17 -17 -17 -17 -17 -17 -17 -17 -18 -18 -19 -19 -20 -20 -21 -21 -22 -22 -22 -23 -24 -25 -27 -28 -29 -29 -30 -30 -31 -31 -29 -28 -27 -27 -26 -25
-15 -15 -14 -14 -14 -15 -15 -15 -16 -15 -16 -15 -15 -16 -16 -16 -17 -17 -17 -17 -18 -18 -18 -17 -18 -18 -18 -19 -20 -20 -20 -21 -21 -21 -22 -22 -23 -24 -25 -26 -28 -29 -29 -30 -30 -30 -30 -30 -29 -29 -28 -27 -26 -26
-15 -15 -15 -14 -15 -15 -15 -16 -16 -16 -16 -16 -16 -16 -17 -17 -17 -18 -18 -18 -18 -18 -18 -18 -18 -18 -19 -20 -20 -21 -21 -21 -21 -22 -22 -23 -24 -25 -26 -27 -29 -29 -30 -30 -31 -30 -30 -30 -30 -29 -28 -27 -27 -26
-16 -15 -15 -15 -15 -16 -16 -16 -16 -16 -16 -16 -16 -17 -17 -17 -18 -18 -18 -19 -19 -19 -19 -18 -18 -19 -20 -20 -21 -21 -22 -22 -23 -23 -23 -24 -25 -26 -27 -28 -29 -30 -30 -30 -31 -30 -30 -30 -30 -29 -28 -27 -27 -26
-16 -16 -16 -16 -16 -16 -16 -16 -16 -16 -16 -17 -17 -17 -18 -18 -18 -19 -19 -19 -19 -19 -19 -19 -19 -20 -20 -21 -21 -22 -22 -23 -23 -24 -24 -24 -25 -26 -28 -29 -30 -31 -31 -31 -31 -31 -30 -30 -29 -28 -28 -27 -27 -26
-17 -16 -16 -16 -17 -16 -16 -16 -17 -18 -18 -18 -18 -18 -19 -19 -19 -19 -19 -19 -19 -19 -20 -20 -20 -21 -21 -21 -22 -22 -23 -23 -23 -24 -24 -25 -26 -27 -28 -30 -30 -31 -31 -31 -31 -31 -31 -30 -29 -29 -28 -27 -27 -26
-17 -17 -17 -17 -17 -17 -18 -18 -18 -18 -18 -19 -19 -19 -19 -19 -19 -19 -19 -19 -20 -20 -21 -21 -22 -22 -22 -22 -23 -23 -23 -23 -23 -24 -25 -25 -26 -28 -29 -30 -31 -31 -32 -32 -31 -31 -31 -30 -30 -29 -28 -28 -27 -27
-18 -18 -18 -18 -19 -19 -19 -19 -19 -19 -19 -19 -19 -19 -20 -20 -20 -20 -20 -20 -21 -22 -22 -22 -22 -22 -23 -23 -23 -23 -24 -24 -24 -25 -26 -26 -27 -28 -30 -31 -31 -32 -32 -32 -32 -32 -31 -31 -30 -29 -28 -28 -27 -27
-19 -20 -19 -19 -20 -20 -20 -19 -20 -20 -20 -20 -20 -19 -20 -20 -20 -21 -21 -22 -22 -23 -22 -22 -23 -23 -24 -24 -24 -24 -24 -25 -25 -26 -26 -27 -28 -29 -31 -31 -32 -32 -33 -33 -32 -32 -31 -31 -30 -30 -29 -28 -27 -27
-20 -20 -20 -20 -20 -20 -20 -20 -20 -20 -20 -20 -20 -20 -20 -21 -21 -22 -22 -23 -23 -23 -23 -24 -24 -24 -24 -24 -25 -25 -25 -26 -26 -26 -27 -28 -29 -30 -31 -32 -32 -33 -33 -33 -33 -32 -31 -31 -31 -30 -29 -28 -28 -28
-20 -21 -21 -21 -21 -21 -21 -21 -21 -20 -21 -21 -21 -21 -21 -21 -22 -22 -23 -24 -24 -24 -24 -25 -25 -25 -25 -26 -26 -26 -26 -27 -27 -27 -28 -29 -30 -31 -32 -33 -33 -34 -34 -33 -33 -32 -32 -31 -31 -30 -30 -29 -28 -28
-21 -21 -21 -21 -21 -21 -21 -21 -21 -21 -21 -21 -21 -22 -22 -22 -23 -23 -24 -25 -25 -25 -26 -26 -26 -26 -27 -27 -27 -27 -27 -28 -28 -29 -30 -31 -31 -32 -33 -33 -33 -34 -34 -34 -33 -33 -32 -32 -31 -31 -30 -29 -29 -29
-22 -22 -21 -22 -22 -22 -22 -21 -21 -21 -22 -22 -22 -23 -24 -23 -24 -24 -25 -26 -26 -26 -26 -27 -27 -28 -28 -28 -28 -28 -28 -29 -29 -30 -31 -32 -32 -33 -33 -34 -34 -34 -35 -34 -34 -33 -33 -32 -31 -31 -31 -30 -30 -29
-22 -22 -22 -22 -22 -22 -22 -22 -22 -22 -23 -23 -24 -24 -24 -25 -25 -26 -26 -26 -27 -27 -28 -28 -28 -28 -28 -29 -29 -29 -29 -30 -31 -32 -33 -33 -33 -34 -34 -34 -35 -35 -35 -34 -34 -34 -33 -33 -32 -31 -31 -31 -30 -30
-23 -23 -22 -22 -22 -22 -22 -23 -23 -24 -24 -24 -25 -25 -26 -26 -26 -26 -27 -27 -28 -28 -29 -29 -29 -29 -29 -30 -30 -30 -31 -32 -33 -33 -34 -34 -34 -35 -35 -35 -35 -35 -35 -35 -34 -34 -34 -33 -32 -32 -32 -31 -31 -30
-23 -23 -23 -23 -23 -23 -23 -24 -24 -25 -25 -25 -26 -26 -27 -27 -27 -28 -28 -29 -29 -29 -29 -30 -30 -30 -30 -30 -31 -31 -32 -33 -34 -34 -35 -35 -35 -35 -36 -35 -36 -36 -35 -35 -35 -34 -34 -33 -33 -32 -32 -32 -31 -31
-23 -23 -23 -23 -24 -24 -25 -25 -25 -26 -27 -27 -27 -27 -27 -28 -28 -29 -29 -30 -30 -30 -31 -31 -31 -31 -31 -32 -32 -32 -33 -34 -34 -35 -35 -35 -36 -36 -36 -36 -36 -36 -35 -35 -35 -35 -34 -34 -33 -33 -33 -32 -32 -32
-24 -24 -24 -25 -25 -26 -26 -26 -27 -27 -27 -28 -28 -28 -29 -29 -29 -30 -30 -31 -31 -31 -32 -32 -32 -32 -33 -33 -33 -33 -34 -34 -35 -36 -36 -36 -36 -37 -37 -36 -36 -36 -36 -36 -35 -35 -35 -34 -34 -33 -33 -33 -33 -32
-25 -25 -26 -26 -27 -27 -27 -27 -28 -28 -28 -28 -29 -29 -29 -30 -30 -31 -31 -31 -32 -32 -32 -33 -33 -33 -34 -34 -35 -35 -35 -36 -36 -37 -37 -37 -37 -37 -37 -36 -36 -36 -36 -36 -36 -35 -35 -35 -34 -34 -34 -33 -33 -33
-26 -26 -27 -27 -27 -27 -28 -28 -28 -28 -29 -29 -30 -30 -30 -31 -31 -31 -32 -32 -32 -33 -33 -33 -34 -34 -35 -35 -36 -36 -36 -37 -37 -38 -38 -38 -37 -37 -37 -37 -36 -36 -36 -36 -36 -36 -36 -35 -35 -35 -34 -34 -34 -33
-27 -27 -27 -28 -28 -28 -28 -29 -29 -29 -30 -30 -30 -31 -31 -32 -32 -32 -32 -33 -33 -33 -34 -34 -34 -35 -35 -36 -36 -37 -37 -37 -38 -38 -38 -38 -38 -38 -37 -37 -37 -37 -37 -37 -37 -36 -36 -36 -35 -35 -35 -35 -34 -34
-28 -28 -28 -28 -29 -29 -29 -30 -30 -30 -31 -31 -31 -32 -32 -32 -32 -33 -33 -33 -34 -34 -34 -35 -35 -35 -36 -36 -37 -37 -37 -37 -38 -38 -38 -38 -38 -38 -38 -37 -37 -37 -37 -37 -37 -37 -36 -36 -36 -36 -35 -35 -35 -35
Height
5707 5711 5716 5721 5724 5728 5731 5734 5734 5734 5733 5733 5731 5729 5727 5725 5722 5719 5717 5713 5707 5701 5694 5686 5679 5671 5663 5655 5646 5637 5629 5618 5608 5598 5588 5577 5565 5554 5542 5531 5525 5518 5515 5512 5510 5508 5508 5505 5503 5501 5497 5493 5488 5483
5698 5702 5707 5712 5716 5718 5721 5725 5727 5726 5725 5723 5722 5721 5719 5717 5714 5711 5709 5705 5700 5694 5687 5681 5673 5665 5658 5650 5641 5632 5624 5614 5605 5594 5585 5572 5561 5549 5538 5530 5522 5516 5511 5508 5508 5505 5506 5504 5503 5501 5498 5496 5494 5490
5689 5694 5697 5701 5706 5707 5711 5715 5718 5718 5717 5716 5713 5712 5710 5708 5706 5703 5701 5697 5693 5687 5680 5673 5667 5659 5652 5644 5636 5628 5619 5611 5603 5593 5583 5571 5560 5548 5537 5527 5517 5513 5507 5504 5504 5503 5502 5501 5501 5501 5500 5498 5497 5495
5679 5684 5688 5692 5695 5697 5700 5705 5708 5709 5708 5707 5705 5704 5702 5700 5698 5696 5693 5689 5685 5679 5672 5667 5660 5653 5646 5638 5630 5622 5614 5606 5598 5588 5578 5566 5556 5545 5534 5523 5514 5508 5504 5501 5497 5498 5497 5497 5498 5499 5499 5499 5498 5497
5668 5674 5679 5683 5686 5689 5691 5693 5696 5698 5699 5698 5696 5696 5694 5692 5690 5687 5684 5681 5676 5672 5665 5659 5653 5646 5639 5632 5625 5617 5609 5602 5594 5583 5573 5562 5553 5543 5532 5520 5510 5503 5498 5494 5489 5488 5489 5490 5492 5494 5496 5497 5498 5499
5658 5664 5669 5673 5677 5680 5680 5684 5685 5687 5688 5688 5686 5686 5685 5684 5681 5678 5675 5672 5667 5661 5657 5652 5646 5639 5633 5626 5618 5611 5603 5597 5588 5578 5568 5557 5547 5537 5527 5517 5507 5498 5491 5485 5480 5476 5476 5480 5484 5488 5490 5494 5495 5497
5647 5654 5659 5664 5666 5669 5670 5673 5676 5677 5678 5677 5677 5676 5676 5674 5671 5668 5666 5663 5657 5652 5648 5644 5639 5632 5626 5619 5611 5605 5597 5591 5582 5572 5561 5551 5541 5532 5520 5510 5500 5491 5484 5478 5474 5471 5470 5469 5476 5481 5485 5489 5493 5495
5637 5642 5648 5653 5656 5660 5662 5665 5666 5667 5668 5667 5667 5666 5665 5663 5660 5658 5655 5651 5647 5644 5639 5635 5630 5624 5618 5612 5605 5598 5591 5583 5575 5565 5555 5545 5535 5525 5515 5504 5494 5485 5478 5473 5468 5465 5463 5463 5467 5474 5480 5484 5488 5491
5623 5631 5638 5642 5645 5649 5654 5654 5656 5657 5657 5658 5657 5656 5654 5653 5650 5648 5645 5641 5637 5635 5630 5625 5620 5615 5609 5604 5598 5592 5585 5578 5570 5558 5549 5539 5529 5517 5507 5497 5487 5478 5472 5468 5463 5458 5455 5455 5459 5468 5474 5479 5484 5487
5612 5619 5625 5631 5635 5640 5644 5646 5645 5645 5647 5648 5647 5645 5644 5643 5639 5638 5633 5631 5628 5624 5620 5615 5611 5606 5601 5595 5589 5583 5577 5570 5561 5553 5543 5532 5523 5511 5501 5491 5481 5473 5467 5463 5459 5455 5453 5451 5455 5463 5469 5474 5479 5484
5600 5606 5613 5618 5624 5629 5633 5634 5634 5636 5637 5636 5635 5634 5633 5631 5629 5626 5623 5621 5618 5616 5611 5606 5602 5597 5592 5587 5581 5574 5567 5560 5553 5546 5536 5526 5516 5505 5495 5486 5476 5469 5463 5460 5457 5454 5452 5451 5454 5460 5465 5470 5475 5480
5588 5594 5601 5607 5611 5617 5620 5621 5623 5626 5626 5626 5625 5623 5622 5620 5618 5616 5613 5610 5607 5605 5601 5597 5593 5588 5583 5577 5571 5565 5559 5550 5543 5535 5527 5518 5508 5497 5490 5481 5471 5465 5460 5457 5454 5452 5451 5451 5454 5458 5463 5468 5472 5477
5575 5583 5590 5596 5602 5605 5607 5610 5612 5613 5615 5613 5614 5612 5611 5609 5606 5605 5602 5600 5597 5593 5590 5587 5583 5578 5572 5567 5562 5555 5549 5542 5534 5526 5518 5510 5499 5491 5484 5475 5466 5460 5456 5453 5451 5450 5449 5449 5452 5457 5462 5465 5469 5473
5565 5571 5578 5584 5588 5590 5596 5599 5599 5602 5602 5602 5601 5601 5600 5598 5597 5595 5592 5590 5587 5584 5581 5578 5575 5570 5562 5557 5551 5544 5539 5533 5524 5516 5509 5501 5492 5483 5477 5470 5462 5456 5453 5450 5448 5447 5447 5448 5451 5456 5460 5462 5466 5469
5555 5560 5566 5570 5574 5581 5583 5586 5588 5591 5590 5590 5590 5590 5590 5589 5586 5584 5583 5579 5577 5574 5570 5569 5565 5559 5552 5547 5541 5535 5528 5521 5514 5507 5500 5491 5483 5475 5469 5463 5457 5452 5449 5447 5446 5445 5445 5448 5450 5454 5458 5460 5463 5466
5544 5550 5554 5560 5566 5570 5573 5576 5578 5579 5579 5579 5579 5580 5580 5578 5576 5575 5572 5569 5566 5563 5560 5558 5554 5548 5544 5537 5532 5525 5518 5512 5505 5497 5489 5482 5474 5467 5461 5455 5450 5447 5445 5444 5443 5442 5443 5446 5448 5452 5455 5458 5460 5463
5537 5542 5548 5554 5557 5561 5564 5566 5568 5568 5569 5570 5570 5570 5570 5568 5567 5565 5562 5559 5555 5553 5551 5546 5542 5537 5531 5527 5521 5514 5509 5501 5493 5486 5478 5471 5464 5457 5451 5446 5443 5441 5440 5439 5439 5439 5440 5442 5444 5448 5451 5454 5457 5460
5530 5535 5541 5544 5547 5548 5550 5555 5557 5559 5561 5561 5560 5561 5560 5558 5555 5553 5551 5548 5545 5542 5539 5536 5531 5526 5521 5516 5509 5504 5497 5489 5482 5475 5467 5460 5453 5447 5441 5437 5434 5433 5434 5434 5434 5434 5436 5438 5440 5443 5447 5450 5453 5455
5524 5529 5531 5533 5537 5542 5545 5548 5550 5551 5551 5551 5551 5551 5549 5546 5544 5542 5540 5537 5534 5530 5527 5523 5519 5514 5509 5504 5498 5491 5484 5477 5470 5462 5454 5448 5441 5434 5429 5426 5425 5425 5426 5427 5428 5429 5431 5433 5435 5438 5442 5445 5448 5451
5514 5518 5522 5527 5530 5533 5536 5539 5540 5541 5541 5541 5540 5538 5536 5535 5533 5531 5528 5524 5521 5518 5515 5512 5507 5502 5498 5492 5485 5478 5471 5464 5457 5450 5442 5435 5428 5422 5418 5416 5415 5416 5417 5419 5421 5422 5425 5427 5430 5433 5436 5440 5443 5445
5510 5513 5517 5520 5524 5527 5529 5530 5530 5531 5531 5529 5528 5527 5524 5522 5521 5518 5516 5514 5511 5508 5504 5500 5495 5491 5484 5478 5471 5464 5457 5450 5443 5436 5430 5422 5414 5410 5407 5405 5405 5406 5408 5411 5413 5415 5418 5421 5424 5427 5430 5434 5437 5439
5503 5506 5509 5511 5515 5517 5518 5519 5519 5519 5519 5517 5516 5514 5513 5511 5509 5508 5506 5503 5499 5495 5493 5488 5482 5476 5470 5463 5456 5450 5444 5435 5427 5421 5415 5408 5403 5398 5396 5395 5395 5397 5399 5402 5405 5408 5411 5415 5418 5421 5424 5427 5431 5434
5494 5498 5501 5503 5504 5505 5507 5508 5509 5509 5509 5507 5507 5505 5503 5501 5499 5497 5495 5491 5487 5484 5480 5474 5469 5463 5455 5448 5442 5436 5428 5420 5414 5407 5400 5395 5391 5388 5386 5385 5386 5388 5391 5394 5397 5400 5404 5408 5412 5415 5418 5421 5424 5428
5486 5489 5492 5494 5496 5497 5499 5500 5500 5500 5499 5498 5496 5494 5492 5490 5488 5485 5482 5479 5476 5471 5466 5461 5456 5449 5443 5437 5430 5421 5414 5408 5400 5392 5387 5383 5380 5377 5376 5376 5379 5381 5384 5387 5390 5393 5397 5401 5405 5409 5412 5415 5418 5422
5483 5485 5488 5488 5489 5490 5490 5490 5490 5489 5488 5487 5485 5483 5482 5479 5476 5474 5470 5467 5462 5459 5454 5448 5443 5437 5431 5423 5415 5408 5401 5393 5386 5380 5377 5373 5371 5369 5368 5370 5373 5375 5378 5380 5383 5387 5390 5394 5398 5402 5405 5408 5412 5416
5477 5478 5480 5480 5480 5481 5480 5480 5480 5478 5478 5476 5474 5472 5470 5468 5464 5461 5458 5455 5452 5447 5441 5436 5431 5425 5417 5409 5403 5395 5387 5380 5375 5370 5368 5365 5363 5362 5363 5365 5367 5369 5372 5374 5377 5381 5384 5387 5391 5395 5399 5402 5406 5410
5467 5469 5470 5471 5471 5472 5472 5471 5470 5469 5468 5466 5463 5461 5459 5456 5453 5450 5447 5444 5439 5435 5429 5424 5417 5410 5404 5397 5390 5381 5374 5369 5365 5361 5359 5358 5356 5356 5357 5360 5362 5364 5366 5369 5372 5375 5378 5381 5384 5388 5392 5396 5399 5403
5461 5462 5464 5465 5464 5463 5462 5462 5461 5460 5458 5457 5452 5450 5448 5444 5442 5438 5433 5430 5426 5421 5415 5410 5404 5399 5392 5385 5377 5369 5362 5357 5354 5352 5351 5350 5350 5350 5351 5354 5356 5358 5361 5363 5366 5369 5372 5375 5378 5381 5385 5389 5393 5397
5456 5457 5457 5456 5456 5455 5455 5453 5452 5451 5449 5444 5441 5437 5435 5431 5428 5425 5421 5418 5413 5408 5403 5398 5393 5388 5381 5373 5365 5358 5352 5348 5345 5343 5342 5342 5343 5344 5345 5348 5350 5353 5355 5357 5360 5363 5365 5368 5371 5374 5378 5382 5386 5390
5448 5448 5448 5447 5447 5446 5445 5444 5442 5438 5434 5431 5429 5426 5423 5420 5417 5414 5410 5406 5402 5397 5393 5388 5383 5376 5370 5363 5356 5350 5345 5341 5337 5336 5335 5335 5336 5338 5339 5342 5344 5347 5349 5351 5354 5357 5359 5362 5365 5368 5371 5375 5379 5383
5441 5441 5440 5439 5437 5435 5433 5431 5428 5426 5424 5421 5419 5416 5413 5409 5404 5401 5398 5395 5390 5386 5381 5377 5371 5365 5360 5354 5349 5344 5339 5335 5332 5330 5330 5330 5330 5331 5333 5335 5338 5340 5343 5345 5348 5351 5353 5356 5358 5361 5365 5368 5372 5376
5432 5431 5429 5427 5426 5425 5423 5421 5419 5416 5413 5411 5407 5404 5401 5397 5394 5391 5386 5382 5378 5374 5369 5365 5360 5356 5351 5347 5342 5337 5333 5329 5327 5325 5324 5324 5324 5325 5327 5329 5331 5333 5336 5339 5342 5345 5347 5350 5352 5355 5359 5362 5366 5369
5424 5422 5421 5419 5417 5415 5412 5410 5407 5405 5401 5398 5395 5391 5387 5384 5381 5377 5373 5369 5365 5361 5358 5354 5350 5346 5342 5338 5335 5331 5327 5324 5321 5319 5318 5318 5318 5319 5320 5322 5324 5327 5329 5332 5335 5338 5341 5344 5347 5349 5352 5355 5358 5362
Wind_Speed
54 50 47 43 39 39 38 31 34 34 34 36 40 40 38 39 41 42 43 46 49 52 54 56 54 54 53 51 52 54 55 57 58 60 62 64 66 66 63 53 36 25 20 16 17 14 10 13 16 16 18 20 19 15
43 47 48 43 47 44 40 33 35 37 37 39 41 40 39 41 41 43 45 48 51 53 53 54 52 52 51 49 50 52 54 55 56 59 61 63 65 66 66 56 43 25 22 18 16 16 11 12 10 12 13 16 16 14
45 42 46 51 47 47 45 35 39 41 41 40 41 40 41 42 43 45 48 50 53 51 53 50 51 51 49 48 49 50 52 54 55 57 59 61 64 65 65 58 47 22 21 23 16 16 14 14 9 7 9 10 11 10
52 46 45 49 51 49 46 39 39 41 41 41 40 41 44 46 47 48 49 50 49 49 50 49 49 48 48 47 48 50 52 53 54 56 59 62 64 65 63 59 51 39 22 20 23 19 19 16 16 9 6 4 4 2
54 50 47 47 51 50 52 44 40 47 44 44 45 45 47 48 49 48 51 51 50 49 47 47 49 48 45 45 47 49 50 52 53 55 58 61 63 63 62 57 51 44 33 27 28 27 23 23 18 17 10 6 2 4
53 50 49 49 52 50 55 44 49 44 44 43 46 48 48 49 50 51 52 52 51 46 44 47 48 45 43 44 46 48 49 51 52 54 58 60 63 63 63 58 54 45 37 33 26 22 22 27 24 22 17 12 8 7
51 50 48 48 51 52 52 51 45 49 52 49 52 52 50 49 51 52 52 51 46 43 45 44 45 41 41 43 45 47 48 50 52 55 57 61 62 63 62 60 56 46 40 34 22 21 18 24 29 26 23 18 14 12
57 56 53 50 50 52 50 47 48 50 48 50 47 44 47 51 52 53 51 45 41 42 43 42 40 38 41 42 44 46 47 49 51 55 57 61 62 62 61 60 54 45 39 32 25 24 18 16 32 29 27 22 18 16
63 61 57 50 51 47 43 43 52 50 49 45 45 47 51 53 53 51 45 40 39 40 41 39 37 37 39 42 44 46 47 49 50 54 58 60 62 60 62 59 53 45 39 30 28 22 17 15 29 31 30 26 21 19
66 63 54 50 48 46 45 39 41 43 44 44 49 51 52 53 50 44 39 39 39 40 37 34 35 36 39 43 45 47 49 50 52 55 57 60 60 59 60 57 50 42 36 29 24 19 11 12 26 32 31 28 24 22
63 61 60 56 53 50 48 45 47 46 46 51 52 52 51 47 43 39 39 38 39 38 33 32 33 37 41 43 45 48 50 51 52 55 58 60 60 58 58 54 48 39 33 27 19 14 9 7 23 32 31 29 26 23
62 60 58 55 54 53 52 52 51 50 54 54 55 52 49 44 40 40 38 38 37 33 30 30 33 38 42 44 45 48 49 52 54 57 59 61 60 59 57 51 43 36 31 26 18 11 9 9 20 28 30 29 27 24
57 62 60 56 55 57 61 61 56 58 60 58 50 49 43 40 40 38 36 35 33 31 30 31 38 41 44 45 46 49 50 52 55 58 61 61 60 57 55 49 39 33 30 24 18 12 10 12 20 26 26 26 25 23
52 53 56 61 62 64 64 61 64 64 52 48 48 41 39 39 38 36 35 33 30 29 32 34 42 45 46 46 48 49 52 54 57 59 61 60 58 56 52 46 35 30 27 21 15 12 11 15 19 22 23 23 23 22
43 44 48 48 49 50 51 49 49 49 46 43 40 39 39 37 34 32 33 30 29 31 32 37 45 46 46 47 47 50 53 55 58 60 60 59 57 55 51 42 32 27 24 18 13 12 14 19 19 21 22 21 22 21
47 47 45 45 45 46 47 48 46 44 41 37 37 38 35 32 31 30 29 29 31 34 35 43 46 47 46 47 48 51 53 56 58 59 60 59 56 53 48 39 29 24 21 17 13 13 18 21 20 20 22 20 20 21
46 46 46 45 44 44 43 39 37 33 33 33 32 30 28 25 23 26 28 32 35 35 41 45 46 45 47 48 50 53 55 57 59 60 60 58 55 51 46 36 27 23 20 17 15 14 19 24 22 22 21 20 19 19
41 44 44 45 44 41 36 36 35 30 26 23 22 23 24 26 28 31 33 34 37 42 44 43 45 45 48 48 52 55 57 59 59 59 58 57 54 49 43 33 26 23 20 18 17 16 19 24 24 23 22 21 20 19
32 31 29 29 27 25 29 29 25 25 23 24 27 29 28 29 33 35 36 38 39 40 42 44 46 47 49 52 55 56 57 57 57 57 56 55 52 47 40 31 26 23 21 19 19 18 19 22 24 24 24 23 22 20
33 32 33 31 28 28 25 24 25 25 25 28 28 29 33 36 38 38 38 38 39 41 45 46 47 49 51 54 55 55 56 56 56 55 55 53 49 44 37 29 26 24 23 21 21 21 21 23 24 25 25 25 23 21
31 27 25 23 30 28 27 24 23 26 29 31 34 35 36 38 39 39 39 41 40 43 46 46 49 51 53 54 54 54 54 55 54 55 53 49 46 42 35 29 26 25 24 23 22 23 23 23 25 25 25 25 22 19
28 24 22 25 24 22 23 27 31 33 34 35 36 38 40 40 40 41 41 39 41 44 46 47 50 51 52 51 52 53 54 53 53 54 51 45 41 38 32 27 25 25 24 23 23 24 25 24 25 25 24 24 23 21
26 31 31 27 24 26 28 28 32 35 37 38 38 38 38 39 40 41 40 40 43 45 46 47 48 49 49 51 52 53 52 52 52 51 46 41 38 34 28 25 24 24 23 23 23 23 26 26 26 26 25 23 22 23
26 27 31 33 29 29 31 34 36 37 37 36 37 36 36 39 40 38 38 41 43 43 43 44 46 47 49 51 50 50 50 51 49 46 40 36 34 29 25 22 22 22 23 22 23 23 25 26 27 26 25 23 22 23
34 36 33 30 32 33 36 38 37 37 37 36 34 35 37 37 36 38 39 40 40 42 43 44 45 47 48 48 48 48 49 48 45 41 36 32 29 24 19 20 20 20 21 21 22 22 23 26 27 26 24 23 23 24
33 33 32 32 35 35 36 37 36 34 34 34 34 34 34 35 36 37 37 39 40 41 42 43 44 45 46 46 48 47 46 44 39 35 31 28 24 19 17 19 19 19 19 21 22 22 22 24 26 27 25 25 25 26
31 33 34 35 35 35 35 34 32 33 33 31 32 33 35 35 35 36 38 39 39 40 42 42 43 44 46 47 47 45 43 39 34 30 28 25 21 17 18 19 19 18 19 20 22 22 22 23 25 27 26 26 25 26
30 31 32 32 32 31 30 31 31 29 29 30 32 33 33 34 35 36 37 39 40 41 43 44 44 45 46 45 44 41 37 34 30 27 25 22 19 17 19 20 19 19 19 19 21 22 22 23 24 25 26 26 26 26
29 29 29 27 28 28 27 27 27 28 29 30 31 32 33 35 36 36 38 40 41 43 44 45 45 45 45 44 42 37 33 29 26 24 23 20 17 17 19 21 21 19 19 19 20 21 21 22 23 23 25 25 26 26
24 24 24 24 24 24 26 27 28 29 30 31 32 34 35 36 37 38 39 41 42 43 43 44 44 45 45 43 39 34 30 26 23 21 19 18 17 18 19 21 21 20 20 20 21 21 21 22 23 23 24 25 25 27
20 20 22 23 25 26 26 28 30 31 33 34 35 36 37 38 41 42 43 43 43 42 42 42 42 42 43 41 37 32 29 24 21 18 17 17 16 20 21 22 22 22 21 21 21 21 21 22 23 24 24 25 26 26
20 21 23 25 26 28 31 32 33 35 36 37 39 41 41 42 42 43 44 42 41 41 40 40 39 39 38 36 34 31 28 25 23 19 17 17 16 18 22 22 23 23 23 22 22 22 22 23 23 25 25 25 26 26
22 25 27 29 31 33 35 37 38 39 41 42 43 43 43 43 43 42 41 41 40 39 38 38 37 36 34 33 31 29 27 25 22 19 18 18 17 17 20 23 24 25 25 24 24 23 22 22 24 26 26 27 27 26
Wind_Direction
245 232 232 241 247 250 255 262 266 268 273 280 285 290 297 303 308 314 322 328 331 333 332 332 335 337 339 339 340 343 345 347 349 348 349 351 353 353 352 353 349 328 320 317 322 313 317 342 357 2 17 15 32 33
244 245 236 236 243 251 251 258 264 267 273 277 283 287 293 300 306 312 320 324 328 329 328 330 332 334 336 337 339 342 344 346 347 348 348 349 353 352 351 350 351 331 317 317 313 312 292 303 335 356 10 11 23 58
242 246 250 234 240 247 249 250 260 270 273 280 281 284 290 296 303 310 316 321 324 325 326 326 328 331 333 335 337 341 343 344 346 346 346 348 352 351 348 347 347 344 315 308 303 290 292 280 288 323 340 7 15 51
237 241 248 249 245 247 250 249 257 263 277 276 279 283 288 294 301 309 316 318 322 322 322 323 325 329 331 332 336 341 342 342 344 344 345 347 350 350 346 345 345 342 335 312 296 287 275 265 259 260 291 333 29 63
236 239 243 248 251 247 255 255 255 260 268 273 277 280 284 290 300 308 313 317 317 319 319 321 324 326 328 331 336 339 340 341 341 342 343 345 348 348 346 344 343 340 334 321 299 280 267 256 242 240 237 247 177 183
233 237 242 249 246 247 257 253 256 264 264 270 278 276 282 292 298 307 311 314 314 315 315 319 320 323 326 330 335 337 337 338 338 340 342 343 346 347 346 343 342 340 336 329 318 299 267 243 234 225 224 222 207 197
236 242 244 248 249 252 262 260 259 256 268 270 273 277 283 292 297 304 308 309 311 310 313 315 318 321 326 329 334 334 335 335 336 338 340 342 344 345 343 341 342 340 337 333 326 317 290 238 224 215 214 212 208 199
234 240 245 247 254 254 263 259 255 259 269 271 272 276 282 290 297 300 304 306 305 307 309 314 317 320 324 329 331 331 333 333 334 336 339 340 342 343 343 341 341 340 338 333 324 320 294 255 214 207 204 205 207 204
232 236 241 244 249 252 251 250 252 262 262 265 273 279 284 293 297 298 299 299 302 304 308 312 314 320 322 327 327 329 330 331 333 334 337 338 340 342 342 340 341 340 337 334 327 324 304 245 205 201 198 200 198 203
230 233 236 238 241 244 247 253 248 252 259 269 277 281 289 291 291 293 293 296 297 301 306 309 314 321 324 325 325 327 328 329 333 333 335 336 338 340 340 339 340 338 336 331 328 328 306 253 197 194 195 197 194 195
230 232 236 238 240 246 245 253 255 257 265 271 274 281 284 284 286 286 290 294 296 300 304 308 317 321 323 322 323 326 328 328 330 331 333 335 337 340 339 337 337 336 335 328 319 321 306 232 194 191 194 194 194 194
227 226 228 234 243 245 248 253 254 258 263 269 274 276 280 280 280 283 287 291 295 297 300 309 317 319 319 321 323 324 325 326 327 330 332 334 336 337 336 335 334 333 331 326 305 296 286 234 196 195 193 192 193 194
226 228 230 234 240 245 248 248 251 256 264 268 268 273 273 275 279 283 288 289 290 291 298 304 314 318 319 321 321 321 323 324 326 328 331 332 334 333 333 332 331 327 327 321 303 273 264 222 195 196 194 194 193 196
228 227 230 235 236 237 240 245 251 258 255 260 265 266 271 276 278 282 284 287 288 293 299 305 314 317 318 318 319 319 321 322 325 328 329 329 330 330 329 329 327 323 322 315 300 263 237 206 191 195 200 199 197 198
217 220 221 222 226 231 234 238 244 249 256 258 260 266 271 274 277 279 284 285 288 298 305 304 311 313 314 316 316 317 319 321 323 324 325 326 327 326 325 325 322 315 312 303 289 258 219 202 194 198 204 202 201 202
215 216 218 222 227 232 236 240 244 251 252 258 261 266 270 272 277 283 286 289 296 302 301 304 307 309 311 313 315 314 316 318 320 322 323 323 323 322 321 321 316 306 301 288 274 254 215 208 198 201 209 207 206 205
219 220 223 228 231 234 236 239 244 250 253 255 260 265 269 279 290 293 295 297 300 299 300 302 305 307 309 311 312 313 315 318 320 320 319 319 319 318 316 316 309 297 286 275 256 245 219 214 205 203 207 211 211 209
208 214 219 223 224 224 228 234 238 242 248 255 268 271 280 292 297 300 297 294 294 296 299 301 303 306 307 311 311 314 316 317 317 317 316 317 316 313 313 311 301 286 272 265 245 235 224 220 215 207 208 213 216 216
204 208 214 218 219 226 232 235 243 251 261 272 278 273 276 290 293 288 286 289 294 296 299 301 303 306 309 310 311 313 314 315 315 314 314 314 313 311 309 304 293 277 260 256 239 228 223 225 224 213 211 214 216 218
200 206 214 220 226 234 242 252 257 260 268 273 278 277 286 288 286 286 291 294 296 298 299 301 303 306 307 308 310 313 314 314 314 314 313 312 310 308 305 296 284 270 252 246 237 225 224 225 228 218 213 215 216 216
214 218 223 228 235 243 246 252 262 266 271 275 276 279 285 288 289 292 294 294 295 296 299 303 305 306 308 310 313 313 313 313 313 314 312 310 307 304 300 288 277 262 247 242 235 225 222 224 227 221 216 217 216 216
223 230 236 252 252 244 249 256 262 267 272 277 279 282 287 289 290 290 292 294 296 298 303 305 305 308 310 313 314 314 314 313 314 312 310 308 304 301 293 280 269 252 242 238 233 226 221 223 227 223 218 216 216 217
221 225 235 251 258 261 263 271 274 276 279 280 279 281 284 287 288 290 293 296 299 303 305 307 310 311 314 315 315 314 314 314 311 310 310 307 302 296 286 276 257 243 236 235 232 226 220 220 225 225 220 217 216 217
226 236 243 249 255 262 264 268 271 274 276 278 281 285 286 286 288 292 298 300 303 304 307 310 312 315 315 315 315 316 315 311 310 310 309 305 300 293 283 264 240 238 232 233 231 224 222 220 222 224 221 218 215 218
233 240 245 254 262 264 264 268 271 274 277 280 282 282 284 289 295 298 300 303 305 307 310 312 315 316 317 319 320 317 313 311 309 307 306 302 298 291 272 239 233 237 231 231 228 223 221 222 221 223 221 219 218 218
241 247 249 254 259 263 267 271 274 277 277 278 281 286 292 295 298 300 302 304 306 309 312 315 316 319 323 324 321 317 312 308 305 302 301 298 296 282 248 231 236 234 229 226 224 222 221 222 222 221 220 219 216 216
252 255 258 260 265 267 268 270 272 273 277 285 289 293 295 295 298 301 303 305 308 311 314 316 320 324 325 325 322 316 309 304 299 295 294 290 289 267 237 231 234 233 231 227 226 225 222 222 223 222 220 220 217 214
255 258 259 262 264 268 270 272 276 282 286 287 290 292 295 298 302 306 307 309 312 314 317 320 322 324 324 324 321 316 309 302 295 288 286 280 278 257 232 230 233 234 234 230 228 228 226 222 222 223 222 219 216 214
255 258 261 264 266 267 273 279 281 282 286 290 294 297 300 302 305 307 308 311 314 316 319 320 321 323 324 324 323 320 314 306 295 285 276 269 267 250 233 230 233 235 235 230 228 227 225 221 219 220 222 220 216 215
255 259 261 268 275 276 278 281 284 289 293 295 297 298 300 302 304 306 307 310 312 313 315 316 319 321 325 327 327 323 319 312 302 287 272 265 259 242 234 230 230 234 234 230 228 226 221 221 220 216 219 221 219 217
261 267 269 273 276 281 285 288 291 292 293 293 294 296 298 300 302 304 305 307 307 308 310 312 316 319 323 326 329 325 321 316 308 296 276 266 262 240 231 228 227 227 229 228 228 226 222 221 220 217 217 218 218 218
272 277 281 283 285 285 285 286 288 289 290 292 294 296 298 299 300 301 301 302 303 305 307 309 312 315 318 322 325 325 320 313 305 298 277 267 264 245 235 230 226 224 226 227 228 227 224 223 222 219 215 217 218 218
280 281 282 283 283 285 287 289 290 292 294 295 297 297 297 297 298 299 299 299 301 302 304 306 308 310 313 316 317 320 319 314 306 291 286 265 261 252 238 233 228 224 223 226 227 227 226 225 226 226 222 216 215 217